Location: Meanaryar
(48.4161°N, 4.7315°W)
Time: 06:54:14
(UTC+00:00)

Okean 1 Rocket - Pass Details

Date: 18 September 2020
Orbit: 606 x 635 km, 82.5° (Epoch: 23 October)

Event Time Altitude Azimuth Distance (km) Brightness Sun altitude
Exits shadow 21:28:26 34° 258° (WSW) 1,057 4.4 -28.8°
Maximum altitude 21:29:23 38° 286° (WNW) 980 4.4 -28.9°
Drops below altitude 10° 21:33:36 10° 355° (N) 2,034 6.2 -29.4°
Sets 21:36:00 0° 4° (N) 2,947 7.1 -29.7°
